Regional Weather Roundup
Issued by NWS

Home | Current Version | Previous Version | Graphics & Text | Print | Product List | Glossary On
Versions: 1 2 3 4 5 6 7 8 9 10 11 12 13 14 15 16 17 18 19 20 21 22 23 24 25 26 27 28 29 30 31 32 33 34 35 36 37 38 39 40 41 42 43 44 45 46 47 48 49 50
412
ASUS43 KDMX 221306
RWRIA

WEATHER ROUNDUP FOR IOWA
NATIONAL WEATHER SERVICE DES MOINES IA
800 AM CDT FRI SEP 22 2017

NOTE: "FAIR" INDICATES FEW OR NO CLOUDS BELOW 12,000 FEET WITH NO
SIGNIFICANT WEATHER AND/OR OBSTRUCTIONS TO VISIBILITY.

* - THESE STATIONS ARE NOT NWS STATIONS...THUS NOT UNDER NWS
QUALITY CONTROL.  THEY ALSO DO NOT REPORT WEATHER SUCH
AS PRECIPITATION OR FOG.

IAZ001>003-012>014-020>022-031>034-043>046-221400-
   NORTHWEST IOWA

CITY           SKY/WX    TMP DP  RH WIND       PRES   REMARKS
CARROLL *      CLEAR     77  72  83 S15G21    29.86S
CHEROKEE *     CLEAR     74  72  91 S12G18    29.82R
DENISON *      CLEAR     77  70  78 S18       29.86R
LE MARS *      CLEAR     75  72  88 S16G24    29.77S
ORANGE CITY *  CLEAR     75  72  88 S12G18    29.79S
SHELDON *      CLEAR     75  70  83 S9        29.78S
SIOUX CITY     CLEAR     75  72  90 S12       29.78R
SPENCER        CLEAR     74  70  87 S12       29.82R
STORM LAKE *   CLEAR     75  70  83 S15G22    29.83S
$$

IAZ055>058-069>071-079>083-090>094-221400-
   SOUTHWEST IOWA

CITY           SKY/WX    TMP DP  RH WIND       PRES   REMARKS
ATLANTIC *     CLEAR     73  70  88 S9        29.88S
AUDUBON *      CLEAR     73  70  88 S10       29.89S
CLARINDA *     CLEAR     75  70  83 S10       29.92S
COUNCIL BLFS * CLEAR     77  73  88 S12G17    29.85S
CRESTON *      CLEAR     73  70  88 S13G20    29.94S
HARLAN  *      CLEAR     75  72  88 S14G20    29.90R
LAMONI         CLEAR     72  69  90 S14       29.96S
RED OAK *      PTCLDY    75  70  83 S12       29.89R
SHENANDOAH *   CLEAR     75  70  83 VRB7      29.89R
$$

IAZ047>049-059>061-072>074-084-221400-
   CENTRAL IOWA

CITY           SKY/WX    TMP DP  RH WIND       PRES   REMARKS
AMES           CLEAR     72  71  97 SE12      29.92R
ANKENY *       CLEAR     73  70  88 S7        29.93R
BOONE *        CLEAR     72  70  94 SE9       29.91R
CHARITON *     SUNNY     72  68  88 S10G18    29.96R
DES MOINES     PTCLDY    74  70  87 S9        29.92R
GRINNELL*      SUNNY     73  67  83 S10       29.98R
KNOXVILLE *    SUNNY     73  68  83 S6        29.94S
MARSHALLTOWN   SUNNY     74  69  85 S12       29.94R
NEWTON *       SUNNY     72  68  88 S9        29.95S
PELLA *        SUNNY     73  67  79 SE8       29.96S
PERRY *          N/A     76  71  87 S9        29.90R
$$

IAZ004>006-015-016-023>025-035-036-221400-
   NORTH CENTRAL IOWA

CITY           SKY/WX    TMP DP  RH WIND       PRES   REMARKS
ALGONA *       CLEAR     75  73  94 SE10      29.86S
CLARION *      CLEAR     73  72  94 S14       29.89S
ESTHERVILLE    CLEAR     73  71  93 S12       29.82S
FORT DODGE *   CLEAR     76  70  82 S13       29.88R
MASON CITY     PTCLDY    71  68  90 SE10      29.92R
FOREST CITY *    N/A     72  70  94 S9        29.89R
WEBSTER CITY * CLEAR     72  70  94 SE12      29.88R
IOWA FALLS *     N/A     73  69  88 SE12      29.93S
$$

IAZ007>011-017>019-026>030-037>042-050>054-066-221400-
   NORTHEAST IOWA

CITY           SKY/WX    TMP DP  RH WIND       PRES   REMARKS
CEDAR RAPIDS   SUNNY     73  68  84 S9        29.98S
CHARLES CITY * MOSUNNY   73  72  94 S12       29.94R
CLINTON *      MOSUNNY  N/A N/A N/A S6        30.03S
DECORAH *      SUNNY     75  68  78 S9G15     29.95S
DUBUQUE        SUNNY     70  67  90 S9        30.02R
MONTICELLO *   SUNNY     72  68  88 SE5       29.99S
OELWEIN *      SUNNY     73  70  88 S8        29.98S
WATERLOO       SUNNY     74  68  81 S15G22    29.94R
$$

IAZ064-065-067-068-078-221400-
   EAST CENTRAL IOWA

CITY           SKY/WX    TMP DP  RH WIND       PRES   REMARKS
DAVENPORT      MOSUNNY   74  68  81 S7        30.04S
IOWA CITY      SUNNY     72  68  87 S3        30.00S
MT. PLEASANT * SUNNY     73  67  81 S7        30.01S
MUSCATINE *    MOSUNNY   68  68 100 CALM      30.02R FOG
QUAD CITIES    SUNNY     75  68  78 CALM      30.02R
$$

IAZ062-063-075>077-085>089-095>099-221400-
   SOUTHEAST IOWA

CITY           SKY/WX    TMP DP  RH WIND       PRES   REMARKS
BURLINGTON     SUNNY     73  70  90 S6        30.02S
FAIRFIELD *    SUNNY     73  68  83 S8        29.99S
FORT MADISON * SUNNY     73  70  88 S6        30.03R
KEOKUK *       SUNNY     77  68  73 S6        30.01S
OSKALOOSA *      N/A     71  68  88 S8        29.99R
OTTUMWA        SUNNY     74  68  81 S10       29.98R
WASHINGTON *   SUNNY     72  70  94 S7        30.01S
$$

ABBREVIATIONS USED IN REMARKS
   TC - TEMPERATURES IN CELSIUS
  WCI - WIND CHILL INDEX
   HX - HEAT INDEX
  VSB - VISIBILITY
$$





USA.gov is the U.S. government's official web portal to all federal, state and local government web resources and services.